Flag for Canada Weather past 2 weeks in Bathurst, New Brunswick, Canada

Now
37 °F

Rain. Fog.


Feels Like: 33 °F
Forecast: 35 / 40 °F
Wind: 6 mph from Southeast

Location: Bathurst Airport

Current Time: Apr 21, 2015 at 8:38:04 PM

Latest Report: Apr 21, 2015 at 8:00 PM


Visibility: 2 mi

Pressure: 29.81 "Hg

Humidity: 93%

Dew point: 36 °F

Location of BathurstLocation

Historic Weather in Bathurst — Graph

°F

Bathurst temperature yesterday

Maximum temperature yesterday: 46 °F (at 4:00 PM)
Minimum temperature yesterday: 21 °F (at 4:00 AM)
Average temperature yesterday: 35 °F

Past Weeks' High & Low Weather Summary

 TemperatureHumidityPressure
High63 °F (Apr 13, 7:00 PM)100% (Apr 10, 7:51 PM)30.58 "Hg (Apr 10, 7:51 PM)
Low0 °F (Apr 7, 6:00 AM)20% (Apr 15, 6:00 PM)29.30 "Hg (Apr 11, 11:00 AM)
Average35 °F58%30.08 "Hg
* Reported Apr 6 7:00 PM — Apr 21 7:00 PM, Bathurst, Weather by CustomWeather, © 2015

Note: Actual official high and low records may vary slightly from our data, if they occured in-between our weather recording intervals... More about our weather records

Advertising

Bathurst weather history for previous 24 hours

 ConditionsComfort  
Time TempWeatherWind HumidityBarometerVisibility
7:00 PM
Tue, Apr 21
37 °FLight rain. Fog.8 mph93%29.82 "Hg5 mi
6:00 PM37 °FLight rain. More clouds than sun.7 mph93%29.84 "Hg8 mi
5:00 PM37 °FLight rain. Fog.10 mph93%29.87 "Hg1 mi
4:00 PM37 °FLight rain. Fog.12 mph93%29.91 "Hg4 mi
3:00 PM37 °FLight rain. Fog.10 mph93%29.95 "Hg3 mi
2:00 PM37 °FLight rain. Fog.12 mph93%29.98 "Hg2 mi
1:00 PM36 °FLight rain. Fog.9 mph93%30.01 "Hg2 mi
12:00 PM36 °FLight rain. Fog.8 mph93%30.04 "Hg3 mi
11:00 AM36 °FLight rain. Fog.8 mph93%30.06 "Hg4 mi
10:00 AM36 °FSleet. More clouds than sun.8 mph93%30.08 "Hg3 mi
9:00 AM36 °FSleet. Low clouds.7 mph93%30.11 "Hg5 mi
8:00 AM37 °FLight rain. Low clouds.7 mph75%30.12 "Hg12 mi
7:00 AM37 °FSprinkles. Mostly cloudy.6 mph70%30.13 "Hg15 mi
6:00 AM36 °FSnow flurries. Passing clouds.3 mph70%30.14 "Hg15 mi
5:00 AM36 °FOvercast.2 mph70%30.15 "Hg15 mi
4:00 AM34 °FOvercast.2 mph75%30.17 "Hg15 mi
3:00 AM34 °FOvercast.No wind75%30.19 "Hg15 mi
2:00 AM36 °FOvercast.3 mph65%30.22 "Hg15 mi
1:00 AM36 °FOvercast.3 mph65%30.25 "Hg15 mi
12:00 AM36 °FOvercast.2 mph60%30.27 "Hg15 mi
11:00 PM
Mon, Apr 20
36 °FPassing clouds.No wind65%30.29 "Hg15 mi
10:00 PM36 °FPassing clouds.3 mph65%30.29 "Hg15 mi
9:00 PM37 °FMostly cloudy.2 mph56%30.29 "Hg15 mi
8:00 PM39 °FMore clouds than sun.9 mph48%30.28 "Hg15 mi
Weather by CustomWeather, © 2015

See weather overviewHow to use our weather pages